DW1389 Weather Reports


time (UTC)temp
C
wind
direction
speed
KPH
gust
KPH
rain 1hr
cm
rain 24hr
cm
rain mn
cm
humidity
%
barometer
mb
20260509213000 32 17 1.6 6.4 0.00 0.08 0.08 55 1007.9
20260509212500 32 46 1.6 6.4 0.00 0.08 0.08 54 1007.9
20260509212003 31 212 1.6 6.4 0.00 0.08 0.08 56 1008.0
20260509211502 31 201 1.6 6.4 0.00 0.08 0.08 56 1008.1
20260509211002 31 37 3.2 9.7 0.00 0.08 0.08 56 1008.2
20260509210502 31 28 3.2 9.7 0.00 0.08 0.08 57 1008.3
20260509210246 31 156 1.6 6.4 0.00 0.08 0.08 56 1008.3
20260509205500 30 320 1.6 8.0 0.00 0.08 0.08 58 1008.4
20260509205002 30 50 1.6 9.7 0.00 0.08 0.08 57 1008.5
20260509204502 30 37 1.6 9.7 0.00 0.08 0.08 56 1008.6
20260509204001 30 164 1.6 6.4 0.00 0.08 0.08 55 1008.7
20260509203501 30 114 3.2 8.0 0.00 0.08 0.08 56 1008.7
20260509203004 30 149 3.2 8.0 0.00 0.08 0.08 56 1008.7
20260509202502 30 0 3.2 6.4 0.00 0.08 0.08 56 1008.8
20260509202002 29 81 3.2 8.0 0.00 0.08 0.08 58 1009.0
20260509201502 28 284 3.2 14.5 0.00 0.08 0.08 59 1009.1
20260509201243 28 152 3.2 14.5 0.00 0.08 0.08 57 1009.3
20260509200501 28 162 3.2 12.9 0.00 0.08 0.08 58 1009.4
20260509200001 28 310 4.8 14.5 0.00 0.08 0.08 58 1009.6
20260509195501 30 226 3.2 14.5 0.00 0.08 0.08 54 1009.8
20260509195000 30 214 3.2 8.0 0.00 0.08 0.08 60 1009.8
20260509194501 30 87 3.2 8.0 0.00 0.08 0.08 60 1009.7
20260509194001 30 53 3.2 8.0 0.00 0.08 0.08 60 1009.5
20260509193500 31 51 3.2 8.0 0.00 0.08 0.08 62 1009.5
20260509193002 31 0 3.2 9.7 0.00 0.08 0.08 60 1009.5
20260509192501 31 65 3.2 9.7 0.00 0.08 0.08 61 1009.4
20260509192002 30 73 3.2 8.0 0.00 0.08 0.08 61 1009.3
20260509191744 30 325 3.2 8.0 0.00 0.08 0.08 63 1009.3
20260509191001 30 131 3.2 12.9 0.00 0.08 0.08 64 1009.3
20260509190741 30 192 3.2 12.9 0.00 0.08 0.08 65 1009.3
20260509190242 30 23 3.2 9.7 0.00 0.08 0.08 67 1009.4
20260509185501 30 66 3.2 11.3 0.00 0.08 0.08 65 1009.5
20260509185001 30 72 3.2 11.3 0.00 0.08 0.08 67 1009.7
20260509184501 30 43 3.2 11.3 0.00 0.08 0.08 67 1009.7
20260509184002 30 259 3.2 9.7 0.00 0.08 0.08 68 1009.8
20260509183502 30 359 3.2 12.9 0.00 0.08 0.08 68 1009.8
20260509183241 30 245 3.2 12.9 0.00 0.08 0.08 68 1009.9
20260509182501 30 29 3.2 12.9 0.00 0.08 0.08 67 1009.9
20260509182001 31 26 1.6 8.0 0.00 0.08 0.08 64 1010.0
20260509181503 31 248 1.6 6.4 0.00 0.08 0.08 66 1010.1
20260509181000 30 0 1.6 6.4 0.00 0.08 0.08 67 1010.1
20260509180501 30 201 3.2 9.7 0.00 0.08 0.08 67 1010.2
20260509180002 30 230 3.2 9.7 0.00 0.08 0.08 68 1010.1
20260509175501 30 259 1.6 8.0 0.00 0.08 0.08 69 1010.2
20260509175002 30 299 1.6 6.4 0.00 0.08 0.08 71 1010.3
20260509174742 29 98 3.2 6.4 0.00 0.08 0.08 70 1010.3
20260509174002 29 280 3.2 6.4 0.00 0.08 0.08 69 1010.3
20260509173501 29 271 1.6 6.4 0.00 0.08 0.08 70 1010.4
20260509173002 29 224 1.6 6.4 0.00 0.08 0.08 72 1010.5
20260509172500 29 232 1.6 6.4 0.00 0.08 0.08 71 1010.5
20260509172001 29 227 1.6 4.8 0.00 0.08 0.08 71 1010.5
20260509171502 29 263 1.6 6.4 0.00 0.08 0.08 70 1010.7
20260509171002 29 58 1.6 8.0 0.00 0.08 0.08 70 1010.7
20260509170502 29 236 3.2 12.9 0.00 0.08 0.08 72 1010.8
20260509170240 28 125 3.2 12.9 0.00 0.08 0.08 74 1010.9
20260509165500 28 188 3.2 9.7 0.00 0.08 0.08 75 1011.0
20260509165001 28 237 1.6 9.7 0.00 0.08 0.08 73 1010.8
20260509164502 29 205 1.6 6.4 0.00 0.08 0.08 71 1010.8
20260509164001 28 65 1.6 8.0 0.00 0.08 0.08 73 1010.8
20260509163501 28 0 3.2 9.7 0.00 0.08 0.08 73 1010.9
20260509163000 28 0 3.2 9.7 0.00 0.08 0.08 76 1011.0
20260509162501 28 230 3.2 9.7 0.00 0.08 0.08 77 1011.1
20260509162001 27 240 4.8 16.1 0.00 0.08 0.08 76 1011.0
20260509161501 27 254 6.4 16.1 0.00 0.08 0.08 79 1011.0
20260509161001 27 218 3.2 11.3 0.00 0.08 0.08 79 1010.9
20260509160501 27 252 3.2 11.3 0.00 0.08 0.08 81 1010.9
20260509160000 26 255 4.8 19.3 0.00 0.08 0.08 81 1010.9
20260509155501 27 256 4.8 19.3 0.00 0.08 0.08 81 1010.9
20260509155244 27 190 4.8 11.3 0.00 0.08 0.08 82 1010.8
20260509154502 26 238 4.8 14.5 0.00 0.08 0.08 82 1010.7
20260509154002 26 290 6.4 14.5 0.00 0.08 0.08 83 1010.4
20260509153502 26 205 6.4 11.3 0.00 0.08 0.08 83 1010.3
20260509153002 26 135 6.4 12.9 0.00 0.08 0.08 84 1010.3
20260509152502 26 219 4.8 12.9 0.00 0.08 0.08 85 1010.4
20260509152001 26 241 4.8 12.9 0.00 0.08 0.08 85 1010.3
20260509151502 25 209 4.8 12.9 0.00 0.08 0.08 86 1010.3
20260509151001 25 254 4.8 12.9 0.00 0.08 0.08 86 1010.2
20260509150502 25 273 4.8 12.9 0.00 0.08 0.08 86 1010.1
20260509150000 26 193 4.8 12.9 0.00 0.08 0.08 85 1010.1
20260509145501 26 222 4.8 12.9 0.00 0.08 0.08 86 1010.1
20260509145000 26 284 3.2 9.7 0.00 0.08 0.08 87 1010.1
20260509144501 26 329 3.2 9.7 0.00 0.08 0.08 86 1010.1
20260509144002 26 344 3.2 11.3 0.00 0.08 0.08 85 1010.0
20260509143501 26 273 4.8 11.3 0.00 0.08 0.08 85 1010.0
20260509143002 26 146 3.2 9.7 0.00 0.08 0.08 85 1009.9
20260509142502 26 292 3.2 11.3 0.00 0.08 0.08 85 1009.7
20260509142001 25 298 4.8 11.3 0.00 0.08 0.08 86 1009.8
20260509141501 25 256 4.8 9.7 0.00 0.08 0.08 86 1009.7
20260509141002 25 152 3.2 8.0 0.00 0.08 0.08 87 1009.6
20260509140748 25 257 1.6 8.0 0.00 0.08 0.08 88 1009.6
20260509140002 25 230 3.2 4.8 0.00 0.08 0.08 90 1009.6
20260509135501 24 231 3.2 4.8 0.00 0.08 0.08 90 1009.5
20260509135003 23 189 3.2 8.0 0.00 0.08 0.08 93 1009.4
20260509134502 23 111 3.2 8.0 0.00 0.08 0.08 96 1009.5
20260509134002 23 286 3.2 6.4 0.00 0.08 0.08 98 1009.6
20260509133502 22 348 3.2 6.4 0.00 0.08 0.08 99 1009.7
20260509133002 22 216 3.2 8.0 0.00 0.08 0.08 99 1009.8
20260509132745 22 307 3.2 8.0 0.00 0.08 0.08 100 1009.7
20260509132232 22 247 3.2 9.7 0.00 0.08 0.08 100 1009.7
20260509131501 22 236 4.8 9.7 0.00 0.08 0.08 100 1009.8
20260509131245 22 253 4.8 8.0 0.00 0.08 0.08 99 1009.9
20260509130505 22 245 3.2 8.0 0.00 0.08 0.08 99 1010.0
20260509130225 22 206 3.2 6.4 0.00 0.08 0.08 99 1010.0
20260509125501 22 202 3.2 4.8 0.00 0.08 0.08 99 1010.0
20260509125228 22 238 3.2 4.8 0.00 0.08 0.08 99 1010.0
20260509124724 22 252 1.6 4.8 0.00 0.08 0.08 99 1009.9
20260509124001 21 253 1.6 3.2 0.00 0.08 0.08 99 1009.9
20260509123501 21 228 0.0 1.6 0.00 0.08 0.08 99 1009.9
20260509123002 21 0 0.0 1.6 0.00 0.08 0.08 99 1010.0
20260509122730 21 0 0.0 1.6 0.00 0.08 0.08 99 1009.9
20260509122002 21 0 0.0 1.6 0.00 0.08 0.08 99 1009.9
20260509121727 21 318 0.0 3.2 0.00 0.08 0.08 99 1009.9
20260509121001 21 0 1.6 3.2 0.00 0.08 0.08 99 1009.9
20260509120500 21 250 1.6 3.2 0.00 0.08 0.08 99 1009.9
20260509120001 21 261 0.0 1.6 0.00 0.08 0.08 99 1009.9
20260509115725 21 257 0.0 1.6 0.00 0.08 0.08 99 1010.0
20260509115002 21 0 0.0 1.6 0.00 0.08 0.08 99 1010.1
20260509114501 21 0 0.0 1.6 0.00 0.08 0.08 99 1010.3
20260509114001 22 198 0.0 1.6 0.00 0.08 0.08 99 1010.7
20260509113501 22 305 0.0 1.6 0.00 0.08 0.08 99 1010.4
20260509113001 22 0 0.0 1.6 0.08 0.08 0.08 99 1010.5
20260509112729 22 325 0.0 1.6 0.08 0.08 0.08 99 1011.0
20260509112002 22 289 0.0 3.2 0.08 0.08 0.08 99 1011.1
20260509111503 22 312 1.6 3.2 0.08 0.08 0.08 99 1011.2
20260509111459 22 218 1.6 3.2 0.08 0.08 0.08 99 1011.4
20260509110501 22 0 0.0 1.6 0.08 0.08 0.08 99 1011.4
20260509110228 22 190 0.0 1.6 0.08 0.08 0.08 99 1011.3
20260509105501 22 149 0.0 1.6 0.08 0.08 0.08 99 1011.3
20260509105001 22 0 0.0 1.6 0.08 0.08 0.08 99 1011.3
20260509104502 22 50 0.0 1.6 0.08 0.08 0.08 99 1011.3
20260509104001 22 325 0.0 1.6 0.08 0.08 0.08 99 1011.2
20260509103501 22 267 0.0 1.6 0.08 0.08 0.05 99 1011.3
20260509103001 22 0 0.0 3.2 0.00 0.00 0.00 99 1011.4
20260509102500 22 0 0.0 3.2 0.00 0.00 0.00 98 1011.3
20260509102004 22 0 0.0 3.2 0.00 0.00 0.00 98 1011.3
20260509101502 22 0 1.6 3.2 0.00 0.00 0.00 98 1011.2
20260509101001 22 356 1.6 3.2 0.00 0.00 0.00 98 1011.1
20260509100501 22 148 1.6 3.2 0.00 0.00 0.00 98 1010.9
20260509100001 22 0 0.0 3.2 0.00 0.00 0.00 98 1010.8
20260509095500 22 8 0.0 1.6 0.00 0.00 0.00 98 1010.7
20260509095002 22 2 0.0 1.6 0.00 0.00 0.00 98 1010.5
20260509094723 22 46 0.0 3.2 0.00 0.00 0.00 98 1010.3
20260509094001 22 0 1.6 3.2 0.00 0.00 0.00 98 1010.1
20260509093500 22 248 1.6 3.2 0.00 0.00 0.00 98 1009.9
20260509093000 22 267 1.6 3.2 0.00 0.00 0.00 98 1009.7
20260509092501 22 287 1.6 3.2 0.00 0.00 0.00 98 1009.7
20260509092001 22 256 1.6 3.2 0.00 0.00 0.00 98 1009.7
20260509091730 22 265 0.0 1.6 0.00 0.00 0.00 98 1009.6
20260509091001 22 0 0.0 1.6 0.00 0.00 0.00 98 1009.5
20260509090500 22 238 0.0 1.6 0.00 0.00 0.00 98 1009.6
20260509090001 22 152 0.0 3.2 0.00 0.00 0.00 98 1009.6
20260509085500 22 0 0.0 3.2 0.00 0.00 0.00 98 1009.7
20260509085001 22 0 0.0 3.2 0.00 0.00 0.00 98 1009.7
20260509084501 22 197 0.0 3.2 0.00 0.00 0.00 98 1009.9
20260509084001 22 283 0.0 1.6 0.00 0.00 0.00 98 1010.1
20260509083500 22 0 0.0 1.6 0.00 0.00 0.00 98 1010.2
20260509083231 22 199 0.0 1.6 0.00 0.00 0.00 98 1010.3
20260509082500 22 0 0.0 1.6 0.00 0.00 0.00 98 1010.3
20260509082230 22 188 0.0 1.6 0.00 0.00 0.00 98 1010.2
20260509081501 22 235 0.0 1.6 0.00 0.00 0.00 98 1010.1
20260509081001 22 3 0.0 1.6 0.00 0.00 0.00 97 1009.9
20260509080501 22 243 0.0 3.2 0.00 0.00 0.00 97 1010.1
20260509080227 22 184 1.6 3.2 0.00 0.00 0.00 97 1010.3
20260509075502 22 230 1.6 3.2 0.00 0.00 0.00 97 1010.3
20260509075002 22 247 1.6 3.2 0.00 0.00 0.00 97 1010.2
20260509074503 22 240 1.6 3.2 0.00 0.00 0.00 97 1010.3
20260509074001 22 183 0.0 3.2 0.00 0.00 0.00 97 1010.4
20260509073505 22 294 0.0 1.6 0.00 0.00 0.00 97 1010.5
20260509073002 22 0 0.0 3.2 0.00 0.00 0.00 97 1010.5
20260509072501 22 187 1.6 3.2 0.00 0.00 0.00 97 1010.5
20260509072001 22 139 1.6 3.2 0.00 0.00 0.00 97 1010.8
20260509071502 22 228 1.6 3.2 0.00 0.00 0.00 96 1010.9
20260509071002 22 232 0.0 1.6 0.00 0.00 0.00 96 1010.8
20260509070501 22 226 0.0 3.2 0.00 0.00 0.00 96 1010.9
20260509070001 22 0 1.6 3.2 0.00 0.00 0.00 96 1010.8
20260509065501 22 174 1.6 3.2 0.00 0.00 0.00 96 1010.4
20260509065002 22 234 0.0 3.2 0.00 0.00 0.00 96 1010.4
20260509064726 22 254 1.6 3.2 0.00 0.00 0.00 96 1010.5
20260509064002 22 147 1.6 3.2 0.00 0.00 0.00 96 1010.5
20260509063501 22 277 1.6 4.8 0.00 0.00 0.00 95 1010.7
20260509063002 22 220 1.6 6.4 0.00 0.00 0.00 95 1010.8
20260509062502 22 0 3.2 6.4 0.00 0.00 0.00 95 1010.4
20260509062001 22 155 3.2 6.4 0.00 0.00 0.00 94 1010.4
20260509061503 22 274 3.2 6.4 0.00 0.00 0.00 94 1010.3
20260509061003 22 277 1.6 4.8 0.00 0.00 0.00 94 1010.2
20260509060502 22 228 1.6 9.7 0.00 0.00 0.00 93 1010.2
20260509060000 22 257 3.2 9.7 0.00 0.00 0.00 93 1010.2
20260509055502 22 282 1.6 6.4 0.00 0.00 0.00 93 1010.3
20260509055001 22 260 3.2 8.0 0.00 0.00 0.00 93 1010.3
20260509054501 23 302 3.2 8.0 0.00 0.00 0.00 93 1010.0
20260509054002 23 138 3.2 6.4 0.00 0.00 0.00 92 1009.7
20260509053502 23 144 3.2 8.0 0.00 0.00 0.00 92 1009.5
20260509053003 23 160 1.6 8.0 0.00 0.00 0.00 92 1009.4
20260509052501 23 266 1.6 3.2 0.00 0.00 0.00 92 1009.3
20260509052001 23 229 1.6 8.0 0.00 0.00 0.00 92 1009.3
20260509051501 23 106 3.2 8.0 0.00 0.00 0.00 92 1009.3
20260509051245 23 147 3.2 8.0 0.00 0.00 0.00 91 1009.2
20260509050502 23 138 3.2 6.4 0.00 0.00 0.00 91 1009.1
20260509050002 23 169 1.6 4.8 0.00 0.00 0.00 91 1009.2
20260509045502 23 65 1.6 4.8 0.00 0.00 0.00 91 1009.3
20260509045004 23 22 1.6 6.4 0.00 0.00 0.00 91 1009.3
20260509044503 23 286 1.6 6.4 0.00 0.00 0.00 91 1009.4
20260509044003 23 253 3.2 4.8 0.00 0.00 0.00 90 1009.5
20260509043502 23 291 3.2 6.4 0.00 0.00 0.00 90 1009.5
20260509043002 23 158 1.6 6.4 0.00 0.00 0.00 90 1009.6
20260509042731 23 109 1.6 4.8 0.00 0.00 0.00 90 1009.6
20260509042002 23 124 1.6 4.8 0.00 0.00 0.00 90 1009.6
20260509041502 23 243 1.6 4.8 0.00 0.00 0.00 90 1009.7
20260509041002 23 190 1.6 4.8 0.00 0.00 0.00 91 1009.7
20260509040502 22 0 1.6 4.8 0.00 0.00 0.00 91 1009.8
20260509040002 22 336 1.6 4.8 0.00 0.00 0.00 91 1009.7
20260509035502 22 164 1.6 3.2 0.00 0.00 0.00 91 1009.8
20260509035002 22 113 0.0 3.2 0.00 0.00 0.00 91 1009.8
20260509034503 22 0 1.6 3.2 0.00 0.00 0.00 91 1009.7
20260509034002 22 263 1.6 4.8 0.00 0.00 0.00 91 1009.6
20260509033502 22 289 1.6 4.8 0.00 0.00 0.00 92 1009.4
20260509033003 22 173 1.6 4.8 0.00 0.00 0.00 92 1009.3
20260509032501 22 151 3.2 4.8 0.00 0.00 0.00 91 1009.2
20260509032001 22 185 1.6 4.8 0.00 0.00 0.00 91 1009.3
20260509031503 22 184 1.6 3.2 0.00 0.00 0.00 91 1009.3
20260509031003 22 299 1.6 6.4 0.00 0.00 0.00 91 1009.3
20260509030502 22 150 1.6 6.4 0.00 0.00 0.00 91 1009.1
20260509030002 22 104 1.6 4.8 0.00 0.00 0.00 90 1009.1
20260509025502 22 274 1.6 4.8 0.00 0.00 0.00 90 1009.2
20260509025002 22 184 0.0 3.2 0.00 0.00 0.00 90 1009.2
20260509024502 22 242 0.0 1.6 0.00 0.00 0.00 90 1009.2
20260509024003 23 0 0.0 0.0 0.00 0.00 0.00 89 1009.2
20260509023502 23 0 0.0 1.6 0.00 0.00 0.00 89 1009.2
20260509023002 23 0 0.0 3.2 0.00 0.00 0.00 89 1009.0
20260509022501 23 358 1.6 3.2 0.00 0.00 0.00 88 1009.0
20260509022002 23 205 1.6 6.4 0.00 0.00 0.00 88 1008.9
20260509021502 23 299 1.6 6.4 0.00 0.00 0.00 87 1008.8
20260509021218 23 305 1.6 6.4 0.00 0.00 0.00 87 1008.7
20260509020456 23 25 1.6 4.8 0.00 0.00 0.00 86 1008.7
20260509020451 23 62 3.2 6.4 0.00 0.00 0.00 86 1008.7
20260509015450 23 186 1.6 4.8 0.00 0.00 0.00 86 1008.7
20260509014950 24 145 1.6 4.8 0.00 0.00 0.00 86 1008.7
20260509014449 24 345 3.2 6.4 0.00 0.00 0.00 85 1008.6
20260509013949 24 145 3.2 6.4 0.00 0.00 0.00 85 1008.5
20260509013450 24 300 3.2 6.4 0.00 0.00 0.00 85 1008.4
20260509012952 24 106 3.2 6.4 0.00 0.00 0.00 84 1008.4
20260509012718 24 135 1.6 6.4 0.00 0.00 0.00 84 1008.4
20260509011952 24 223 3.2 6.4 0.00 0.00 0.00 84 1008.4
20260509011718 25 93 3.2 6.4 0.00 0.00 0.00 83 1008.4
20260509011659 24 266 3.2 6.4 0.00 0.00 0.00 83 1008.4
20260509010450 25 70 3.2 6.4 0.00 0.00 0.00 83 1008.5
20260509005950 25 356 3.2 6.4 0.00 0.00 0.00 83 1008.5
20260509005450 25 136 3.2 8.0 0.00 0.00 0.00 82 1008.4
20260509004950 25 358 3.2 8.0 0.00 0.00 0.00 82 1008.3
20260509004724 25 116 4.8 11.3 0.00 0.00 0.00 82 1008.3
20260509003948 25 86 4.8 11.3 0.00 0.00 0.00 82 1008.3
20260509003449 25 93 4.8 9.7 0.00 0.00 0.00 82 1008.4
20260509003219 25 86 3.2 8.0 0.00 0.00 0.00 82 1008.4
20260509002449 25 33 3.2 9.7 0.00 0.00 0.00 81 1008.4
20260509001948 25 59 3.2 9.7 0.00 0.00 0.00 81 1008.4
20260509001450 25 74 3.2 9.7 0.00 0.00 0.00 81 1008.4
20260509000940 25 106 4.8 9.7 0.00 0.00 0.00 81 1008.5
20260509000440 25 123 3.2 9.7 0.00 0.00 0.00 80 1008.5
20260508235940 25 307 4.8 11.3 0.00 0.00 0.00 80 1008.4
20260508235441 25 45 4.8 11.3 0.00 0.00 0.00 80 1008.5
20260508234937 25 358 3.2 6.4 0.00 0.00 0.00 80 1008.5
20260508234437 25 64 3.2 9.7 0.00 0.00 0.00 79 1008.5
20260508233935 25 28 3.2 9.7 0.00 0.00 0.00 79 1008.5
20260508233434 25 124 3.2 8.0 0.00 0.00 0.00 79 1008.5
20260508232933 25 71 3.2 8.0 0.00 0.00 0.00 79 1008.5
20260508232431 25 149 3.2 11.3 0.00 0.00 0.00 79 1008.5
20260508231932 25 43 3.2 11.3 0.00 0.00 0.00 79 1008.5
20260508231431 25 308 3.2 12.9 0.00 0.00 0.00 78 1008.5
20260508230932 25 61 3.2 12.9 0.00 0.00 0.00 78 1008.4
20260508230432 25 9 3.2 8.0 0.00 0.00 0.00 77 1008.5
20260508230214 25 0 3.2 9.7 0.00 0.00 0.00 78 1008.5
20260508225716 25 14 3.2 11.3 0.00 0.00 0.00 78 1008.4
20260508224931 25 72 3.2 11.3 0.00 0.00 0.00 78 1008.4
20260508224430 25 312 3.2 8.0 0.00 0.00 0.00 78 1008.4
20260508223929 25 193 3.2 8.0 0.00 0.00 0.00 78 1008.4
20260508223430 25 25 3.2 9.7 0.00 0.00 0.00 78 1008.4
20260508222929 25 11 3.2 9.7 0.00 0.00 0.00 78 1008.4
20260508222507 25 312 4.8 11.3 0.00 0.00 0.00 79 1008.5
20260508222454 25 36 3.2 11.3 0.00 0.00 0.00 79 1008.4
20260508221429 25 97 3.2 11.3 0.00 0.00 0.00 79 1008.5
20260508221002 25 83 3.2 12.9 0.00 0.00 0.00 79 1008.5
20260508220951 25 133 3.2 11.3 0.00 0.00 0.00 79 1008.5
20260508215929 25 58 3.2 12.9 0.00 0.00 0.00 79 1008.6
20260508215430 25 26 3.2 9.7 0.00 0.00 0.00 79 1008.6
20260508214928 25 52 3.2 9.7 0.00 0.00 0.00 79 1008.7
20260508214430 25 0 3.2 8.0 0.00 0.00 0.00 78 1008.7
20260508213930 25 350 3.2 9.7 0.00 0.00 0.00 77 1008.7
20260508213430 25 75 3.2 14.5 0.00 0.00 0.00 77 1008.7